www.pogodaiklimat.ru

Погода и климат >> Архив погоды >> Франция >> Алистро


ПОГОДА в Алистро

  • Прогноз погоды в Алистро
  • Монитор погоды в Алистро

АРХИВ ПОГОДЫ в Алистро

Время (UTC), дата Ветер
(напр.,м/с)
 
Видим.   Явления Облачность Т
(С)
Тd
(С)
f
(%)
Тe
(С)
Тes
(С)
Комфортность P
(гПа)
Po
(гПа)
Тmin
(С)
Tmax
(С)
R
(мм)
R24
(мм)
S
(см)
04 15.08 СЗ 1-2
{2}
н/о н/о +24.4 +12.7 48 +26 +26 жарко 1014.9 1006.4
05 15.08 СЗ 2-2
{3}
н/о н/о +24.4 +12.7 48 +26 +26 жарко 1015.2 1006.7
06 15.08 З 1
{4}
н/о н/о +24.7 +13.3 49 +27 +27 жарко 1015.7 1007.2 +22.3 +26.1
07 15.08 Ю 1-2
{2}
н/о н/о +27.0 +16.6 53 +31 +31 душно 1015.7 1007.3
08 15.08 В 2-2
{3}
н/о н/о +28.3 +16.6 49 +32 +32 душно 1015.6 1007.2
09 15.08 ЮВ 2-3
{4}
25 км ясно +28.1 +17.9 54 +33 +45 очень
душно
1015.5 1007.1
10 15.08 ЮВ 2-4
{4}
н/о н/о +28.4 +19.3 58 +34 +34 очень
душно
1015.5 1007.1
11 15.08 ЮВ 3-4
{4}
н/о н/о +28.3 +19.2 58 +34 +34 очень
душно
1015.3 1006.9
12 15.08 ЮВ 3-4
{4}
25 км 4/4 1200 м
[Sc diur, vesp]
+28.2 +20.2 62 +35 +44 очень
душно
1015.1 1006.7
13 15.08 ЮВ 3-4
{5}
н/о н/о +28.0 +20.3 63 +34 +34 очень
душно
1014.8 1006.4
14 15.08 ЮВ 2-4
{4}
н/о н/о +28.1 +20.1 62 +34 +34 очень
душно
1014.4 1006.0
15 15.08 В 2-3
{3}
25 км 6/6 800 м
[St Ac cuf]
+26.7 +19.8 66 +33 +36 очень
душно
1014.5 1006.1
16 15.08 В 2-3
{3}
н/о н/о +26.9 +19.5 64 +33 +33 очень
душно
1014.0 1005.6
17 15.08 СВ 2-2
{3}
н/о н/о +27.1 +19.4 63 +33 +33 очень
душно
1013.7 1005.3
18 15.08 СВ 1-1
{2}
н/о н/о +26.0 +19.2 66 +31 +31 очень
душно
1014.1 1005.6 +24.7 +29.1
19 15.08 штиль 0-1
{1}
н/о н/о +24.7 +19.1 71 +30 +30 очень
душно
1014.2 1005.7
20 15.08 СЗ 1-2
{2}
н/о н/о +24.2 +19.3 74 +29 +29 душно 1014.8 1006.3
21 15.08 СЗ 1-1
{1}
н/о н/о +24.2 +19.3 74 +29 +29 душно 1014.6 1006.1
22 15.08 З 1-2
{2}
н/о н/о +23.4 +19.1 77 +30 +30 очень
душно
1014.4 1005.9
23 15.08 ЮЗ 1-2
{2}
н/о н/о +23.1 +18.0 73 +29 +29 очень
душно
1014.0 1005.5
00 16.08 ЮЗ 2-2
{2}
н/о н/о +21.7 +17.5 77 +26 +26 душно 1014.0 1005.4
01 16.08 ЮЗ 2-2
{3}
н/о н/о +21.4 +16.1 72 +25 +25 комфорт 1013.7 1005.1
02 16.08 ЮЗ 1-2
{2}
н/о н/о +22.4 +15.0 63 +26 +26 жарко 1013.7 1005.1
03 16.08 ЮЗ 2-2
{2}
20 км ясно +22.6 +13.1 55 +26 +26 жарко 1013.4 1004.8
04 16.08 ЮЗ 2-2
{2}
н/о н/о +22.9 +13.7 56 +26 +26 жарко 1013.8 1005.2
05 16.08 ЮЗ 1-2
{2}
н/о н/о +23.2 +13.7 55 +27 +27 душно 1014.5 1005.9
06 16.08 З 1
{4}
20 км 4/4 1200 м
[Sc diur, vesp]
+23.9 +16.9 65 +28 +29 душно 1014.9 1006.4 +21.1 +26.0
07 16.08 Ю 1-2
{2}
н/о н/о +26.6 +20.4 69 +33 +33 очень
душно
1015.2 1006.8
08 16.08 В 2-3
{3}
н/о н/о +28.6 +20.3 61 +35 +35 очень
душно
1015.4 1007.0
09 16.08 В 2-3
{3}
24 км 4/4 1080 м
[Cu med, cong]
+28.0 +21.1 66 +35 +43 очень
душно
1015.5 1007.1
10 16.08 ЮВ 2-4
{4}
н/о н/о +28.1 +20.4 63 +35 +35 очень
душно
1015.5 1007.1
11 16.08 ЮВ 3-4
{4}
н/о н/о +28.2 +20.7 64 +35 +35 очень
душно
1015.3 1006.9
12 16.08 ЮВ 3-4
{5}
н/о н/о +28.1 +20.6 64 +35 +35 очень
душно
1015.2 1006.8
13 16.08 ЮВ 3-5
{5}
н/о н/о +28.7 +20.2 60 +35 +35 очень
душно
1014.8 1006.4
14 16.08 ЮВ 3-4
{5}
н/о н/о +28.4 +20.2 61 +35 +35 очень
душно
1014.7 1006.3
15 16.08 ЮВ 2-3
{4}
24 км 3/3 1080 м
[Cu med, cong]
+28.4 +18.8 56 +34 +39 очень
душно
1014.6 1006.2
16 16.08 В 2-2
{3}
н/о н/о +27.4 +18.9 60 +33 +33 очень
душно
1014.4 1006.0
17 16.08 СВ 1-2
{3}
н/о н/о +27.2 +18.5 59 +32 +32 очень
душно
1014.4 1006.0
18 16.08 В 1
{4}
24 км 5/5 1080 м
[Cu Sc Ac cuf Ci sp]
+25.9 +18.6 64 +31 +31 очень
душно
1014.7 1006.2 +24.0 +29.2
19 16.08 ЮЗ 1-2
{2}
н/о н/о +24.3 +18.2 69 +29 +29 душно 1015.1 1006.6
20 16.08 ЮЗ 1-2
{2}
н/о н/о +24.1 +18.1 69 +28 +28 душно 1015.8 1007.3
21 16.08 СЗ 1-1
{2}
н/о н/о +24.7 +17.7 65 +29 +29 душно 1015.9 1007.4
22 16.08 СЗ 2-2
{2}
н/о н/о +24.2 +17.0 64 +28 +28 душно 1016.1 1007.6
23 16.08 С 2-3
{3}
н/о н/о +23.3 +17.5 70 +29 +29 душно 1016.3 1007.7
00 17.08 СЗ 2-2
{3}
н/о н/о +23.0 +18.5 76 +29 +29 очень
душно
1016.0 1007.4
01 17.08 СЗ 2-2
{2}
н/о н/о +22.9 +19.1 79 +29 +29 очень
душно
1016.1 1007.5
02 17.08 СЗ 2-3
{3}
н/о н/о +22.5 +18.9 80 +28 +28 душно 1015.8 1007.2
03 17.08 СЗ 2-3
{3}
н/о н/о +22.2 +18.2 78 +27 +27 душно 1015.9 1007.3
04 17.08 СЗ 2-2
{3}
н/о н/о +22.7 +19.1 80 +29 +29 очень
душно
1016.1 1007.5
05 17.08 СЗ 2-2
{2}
н/о н/о +22.7 +18.9 79 +29 +29 очень
душно
1016.5 1007.9
06 17.08 СЗ 1
{4}
н/о н/о +24.0 +19.7 77 +29 +29 душно 1016.7 1008.2 +22.1 +25.9
07 17.08 С 1-2
{2}
н/о н/о +26.5 +18.9 63 +32 +32 очень
душно
1017.1 1008.6
08 17.08 В 2-3
{3}
н/о н/о +27.5 +19.6 62 +33 +33 очень
душно
1017.0 1008.6
09 17.08 В 2-3
{4}
н/о н/о +26.8 +19.9 66 +33 +33 очень
душно
1017.4 1008.9
10 17.08 В 2-4
{4}
н/о н/о +27.4 +20.5 66 +34 +34 очень
душно
1017.2 1008.8
11 17.08 СВ 2-3
{3}
н/о н/о +27.1 +20.9 69 +34 +34 очень
душно
1017.3 1008.9
12 17.08 СВ 2-3
{4}
20 км 9/9 800 м
[Cu Sc]
+27.5 +20.8 67 +34 +36 очень
душно
1017.3 1008.9
13 17.08 СВ 2-3
{4}
н/о н/о +27.7 +20.3 64 +34 +34 очень
душно
1017.0 1008.6
14 17.08 В 2-3
{3}
н/о н/о +27.6 +19.7 62 +33 +33 очень
душно
1016.8 1008.4
15 17.08 В 2
{5}
20 км 6/6 900 м
[Sc As trans Ci sp]
+27.6 +19.7 62 +33 +37 очень
душно
1016.6 1008.2
16 17.08 В 1-2
{3}
н/о н/о +26.6 +19.7 66 +32 +32 очень
душно
1016.6 1008.1
17 17.08 В 1-2
{2}
н/о н/о +26.8 +19.7 65 +33 +33 очень
душно
1016.2 1007.8
18 17.08 В 1
{3}
20 км 6/6 900 м
[Sc As trans Ci sp]
+25.7 +19.3 68 +31 +31 очень
душно
1016.3 1007.8 +24.1 +28.8
19 17.08 С 1-1
{1}
н/о н/о +24.8 +19.4 72 +30 +30 душно 1016.4 1007.9
20 17.08 З 1-1
{1}
н/о н/о +24.4 +19.5 74 +30 +30 очень
душно
1016.5 1008.0
21 17.08 З 1-1
{1}
н/о н/о +24.0 +19.5 76 +29 +29 душно 1016.5 1008.0
22 17.08 З 1-1
{1}
н/о н/о +24.1 +19.4 75 +29 +29 душно 1016.6 1008.1
23 17.08 СЗ 1-1
{2}
н/о н/о +24.2 +19.9 77 +30 +30 очень
душно
1016.6 1008.1
00 18.08 СЗ 1-1
{1}
н/о н/о +23.7 +19.4 77 +29 +29 душно 1016.5 1008.0
01 18.08 З 1-1
{1}
н/о н/о +23.6 +19.9 80 +29 +29 душно 1016.3 1007.8
02 18.08 ЮЗ 1-1
{1}
н/о н/о +23.6 +19.9 80 +29 +29 душно 1016.2 1007.7
03 18.08 Ю 1-1
{1}
20 км 5/5 900 м
[Sc diur, vesp]
+23.0 +19.8 82 +30 +30 очень
душно
1015.8 1007.3
04 18.08 Ю 1-1
{1}
н/о н/о +23.3 +19.9 81 +30 +30 очень
душно
1015.9 1007.4
05 18.08 ЮЗ 1-1
{1}
н/о н/о +23.4 +20.1 82 +31 +31 очень
душно
1016.0 1007.5
06 18.08 ЮЗ 1
{3}
18 км 8/6 1000 м
[Sc As op]
+24.8 +20.7 78 +31 +31 очень
душно
1016.0 1007.5 +22.9 +25.6
07 18.08 Ю 1-2
{2}
н/о н/о +27.3 +21.1 69 +34 +34 очень
душно
1016.0 1007.6
08 18.08 ЮВ 2-3
{3}
н/о н/о +28.5 +21.5 66 +36 +36 очень
душно
1016.2 1007.8
09 18.08 ЮВ 3-4
{4}
н/о н/о +28.7 +21.2 64 +36 +36 очень
душно
1016.3 1007.9
10 18.08 ЮВ 4-5
{5}
н/о н/о +28.2 +21.2 66 +36 +36 очень
душно
1016.3 1007.9
11 18.08 ЮВ 4-5
{6}
н/о н/о +28.7 +21.2 64 +36 +36 очень
душно
1016.3 1007.9
12 18.08 ЮВ 4-5
{6}
20 км 4/3 1000 м
[Cb calv As trans]
+28.2 +21.0 65 +35 +43 очень
душно
1016.0 1007.6
13 18.08 ЮВ 4-5
{5}
н/о н/о +28.4 +19.6 59 +34 +34 очень
душно
1015.9 1007.5
14 18.08 Ю 3-4
{5}
н/о н/о +28.9 +19.0 55 +34 +34 очень
душно
1015.8 1007.4
15 18.08 ЮВ 3-4
{5}
20 км 1/1 1000 м
[Cu med, cong]
+28.4 +19.3 58 +34 +39 очень
душно
1015.4 1007.0
16 18.08 ЮВ 3-4
{5}
н/о н/о +27.5 +19.6 62 +33 +33 очень
душно
1015.3 1006.9
17 18.08 Ю 2-4
{4}
н/о н/о +26.5 +19.6 66 +32 +32 очень
душно
1015.1 1006.7
18 18.08 Ю 2
{6}
20 км 1/1 1000 м
[Cu med, cong]
+25.0 +20.3 75 +31 +31 очень
душно
1015.1 1006.6 +24.9 +29.2
19 18.08 Ю 2-3
{3}
н/о н/о +23.9 +20.6 82 +30 +30 очень
душно
1015.3 1006.8
20 18.08 ЮЗ 2-3
{3}
н/о н/о +23.3 +21.0 87 +31 +31 очень
душно
1015.9 1007.4
21 18.08 ЮЗ 3-3
{3}
н/о н/о +22.7 +20.6 88 +30 +30 очень
душно
1016.0 1007.4
22 18.08 ЮЗ 2-3
{3}
н/о н/о +22.4 +20.1 87 +29 +29 очень
душно
1016.0 1007.4
23 18.08 ЮЗ 3-3
{3}
н/о н/о +22.3 +19.8 86 +28 +28 душно 1016.0 1007.4
00 19.08 ЮЗ 3-3
{3}
н/о н/о +22.1 +19.5 85 +28 +28 душно 1015.7 1007.1
01 19.08 ЮЗ 3-3
{3}
н/о н/о +22.2 +19.2 83 +28 +28 душно 1015.4 1006.8
02 19.08 ЮЗ 3-3
{4}
н/о н/о +22.4 +19.0 81 +28 +28 душно 1015.7 1007.1
03 19.08 ЮЗ 3-3
{3}
н/о н/о +22.1 +19.1 83 +28 +28 душно 1015.5 1006.9
04 19.08 ЮЗ 3-3
{3}
н/о н/о +22.0 +19.0 83 +27 +27 душно 1015.3 1006.7
05 19.08 ЮЗ 3-3
{3}
н/о н/о +22.3 +19.5 84 +28 +28 душно 1015.9 1007.3
06 19.08 ЮЗ 3
{7}
20 км ясно +23.6 +19.9 80 +29 +30 душно 1015.8 1007.3 +22.0 +25.0
07 19.08 Ю 3-5
{5}
н/о н/о +26.2 +21.0 73 +33 +33 очень
душно
1016.0 1007.5
08 19.08 Ю 3-4
{5}
н/о н/о +27.9 +20.7 65 +35 +35 очень
душно
1016.0 1007.6
09 19.08 ЮВ 3-6
{6}
25 км ясно +28.4 +21.7 67 +36 +46 очень
душно
1016.5 1008.1
10 19.08 ЮВ 4-5
{6}
н/о н/о +28.3 +22.1 69 +37 +37 очень
душно
1016.8 1008.4
11 19.08 ЮВ 4-6
{6}
н/о н/о +28.6 +21.6 66 +37 +37 очень
душно
1016.8 1008.4
12 19.08 ЮВ 4-5
{5}
25 км ясно +28.7 +22.0 67 +37 +49 очень
душно
1016.9 1008.5
13 19.08 ЮВ 4-5
{6}
н/о н/о +28.6 +22.1 68 +37 +37 очень
душно
1016.9 1008.5
14 19.08 ЮВ 3-5
{6}
н/о н/о +28.6 +22.4 69 +37 +37 очень
душно
1016.9 1008.5
15 19.08 ЮВ 3-5
{5}
н/о н/о +28.2 +22.0 69 +36 +36 очень
душно
1016.7 1008.3
16 19.08 ЮВ 3-4
{4}
н/о н/о +27.9 +22.4 72 +37 +37 очень
душно
1016.5 1008.1
17 19.08 Ю 3-4
{4}
н/о н/о +26.7 +22.3 77 +35 +35 очень
душно
1016.6 1008.2
18 19.08 Ю 2-3
{4}
25 км ясно +25.9 +21.6 77 +33 +33 очень
душно
1016.8 1008.3 +23.7 +29.5
19 19.08 Ю 2-2
{3}
н/о н/о +24.6 +21.3 82 +31 +31 очень
душно
1017.1 1008.6
20 19.08 ЮЗ 2-2
{2}
н/о н/о +23.8 +21.1 85 +30 +30 очень
душно
1017.5 1009.0
21 19.08 ЮЗ 2-2
{2}
н/о н/о +23.6 +20.5 83 +29 +29 душно 1017.5 1009.0
22 19.08 ЮЗ 2-3
{3}
н/о н/о +23.1 +19.1 78 +29 +29 очень
душно
1017.7 1009.1
23 19.08 ЮЗ 2-3
{3}
н/о н/о +22.8 +17.7 73 +28 +28 душно 1017.4 1008.8
00 20.08 ЮЗ 3-3
{3}
н/о н/о +22.6 +17.3 72 +27 +27 душно 1017.3 1008.7
01 20.08 ЮЗ 3-3
{3}
н/о н/о +23.0 +18.5 76 +29 +29 очень
душно
1017.0 1008.4
02 20.08 ЮЗ 3-3
{4}
н/о н/о +22.3 +18.7 80 +28 +28 душно 1016.8 1008.2
03 20.08 ЮЗ 3-3
{4}
20 км ясно +22.1 +17.0 73 +27 +27 душно 1016.4 1007.8
04 20.08 ЮЗ 3-3
{3}
н/о н/о +21.8 +15.9 69 +25 +25 комфорт 1016.3 1007.7
05 20.08 ЮЗ 3-4
{4}
н/о н/о +21.1 +15.0 68 +24 +24 комфорт 1016.5 1007.9
06 20.08 Ю 3
{7}
н/о н/о +23.5 +19.2 77 +28 +28 душно 1016.4 1007.9 +21.1 +25.9
07 20.08 Ю 3-4
{5}
н/о н/о +26.2 +21.8 77 +34 +34 очень
душно
1016.6 1008.1
08 20.08 Ю 3-4
{5}
н/о н/о +28.4 +19.9 60 +35 +35 очень
душно
1016.7 1008.3
09 20.08 ЮВ 3-5
{5}
15 км ясно +28.7 +22.4 69 +38 +47 очень
душно
1017.1 1008.7
10 20.08 ЮВ 4-5
{5}
н/о н/о +28.4 +22.4 70 +37 +37 очень
душно
1017.3 1008.9
11 20.08 ЮВ 4-5
{6}
н/о н/о +28.6 +22.4 69 +37 +37 очень
душно
1017.2 1008.8
12 20.08 ЮВ 3-5
{5}
н/о н/о +29.4 +21.9 64 +38 +38 очень
душно
1017.0 1008.6
13 20.08 ЮВ 3-5
{6}
н/о н/о +29.0 +22.2 67 +38 +38 очень
душно
1016.6 1008.2
14 20.08 ЮВ 3-5
{5}
н/о н/о +28.6 +22.1 68 +37 +37 очень
душно
1016.5 1008.1
15 20.08 Ю 6-5
{10}
15 км ясно +28.2 +22.2 70 +37 +39 очень
душно
1016.4 1008.0
16 20.08 Ю 6-5
{10}
н/о н/о +27.7 +22.4 73 +36 +36 очень
душно
1016.1 1007.7
17 20.08 Ю 5-4
{10}
н/о н/о +26.9 +22.5 77 +35 +35 очень
душно
1016.2 1007.8
18 20.08 Ю 2-3
{4}
н/о н/о +25.5 +22.4 83 +33 +33 очень
душно
1016.7 1008.2 +23.5 +29.6
19 20.08 ЮЗ 2-2
{3}
н/о н/о +24.1 +21.4 85 +31 +31 очень
душно
1017.0 1008.5
20 20.08 ЮЗ 2-2
{3}
н/о н/о +23.3 +21.0 87 +31 +31 очень
душно
1017.0 1008.5
21 20.08 ЮЗ 2-2
{3}
н/о н/о +22.9 +19.3 80 +29 +29 очень
душно
1017.1 1008.5
22 20.08 ЮЗ 2-2
{3}
н/о н/о +23.1 +18.8 77 +29 +29 очень
душно
1017.1 1008.5
23 20.08 ЮЗ 2-2
{3}
н/о н/о +23.2 +20.7 86 +31 +31 очень
душно
1017.0 1008.5
00 21.08 ЮЗ 2-2
{3}
н/о н/о +23.0 +21.1 89 +31 +31 очень
душно
1016.7 1008.2
01 21.08 ЮЗ 1-2
{2}
н/о н/о +23.9 +21.2 85 +30 +30 очень
душно
1016.7 1008.2
02 21.08 З 1-1
{2}
н/о н/о +24.2 +22.1 88 +31 +31 очень
душно
1016.6 1008.1
03 21.08 ЮЗ 1-2
{2}
18 км ясно +23.5 +21.9 91 +30 +30 очень
душно
1016.6 1008.1
04 21.08 СЗ 1-2
{2}
н/о н/о +23.9 +22.7 93 +31 +31 очень
душно
1016.8 1008.3
05 21.08 С 2-2
{3}
н/о н/о +23.1 +18.6 76 +29 +29 очень
душно
1017.2 1008.6
06 21.08 С 2
{4}
18 км 3/0
[Ci sp]
+24.4 +18.8 71 +29 +30 душно 1017.5 1009.0 +22.7 +25.5
07 21.08 С 1-2
{2}
н/о н/о +26.4 +20.3 69 +33 +33 очень
душно
1017.6 1009.1
08 21.08 В 1-2
{2}
н/о н/о +28.7 +21.7 66 +37 +37 очень
душно
1017.6 1009.2
09 21.08 В 2-3
{3}
н/о н/о +28.3 +21.6 67 +36 +36 очень
душно
1017.8 1009.4
10 21.08 В 3-4
{4}
н/о н/о +28.1 +22.6 72 +37 +37 очень
душно
1017.7 1009.3
11 21.08 В 2-3
{4}
н/о н/о +27.8 +22.5 73 +37 +37 очень
душно
1017.5 1009.1
12 21.08 В 2-3
{4}
н/о н/о +28.1 +22.6 72 +37 +37 очень
душно
1017.3 1008.9
13 21.08 В 2-3
{4}
н/о н/о +28.5 +23.0 72 +38 +38 очень
душно
1017.0 1008.6
14 21.08 В 2-3
{4}
н/о н/о +28.5 +23.0 72 +38 +38 очень
душно
1016.8 1008.4
15 21.08 В 2-3
{3}
н/о н/о +27.9 +22.6 73 +37 +37 очень
душно
1016.6 1008.2
16 21.08 СВ 2-3
{3}
н/о н/о +27.6 +22.3 73 +36 +36 очень
душно
1016.7 1008.3
17 21.08 В 1-2
{3}
н/о н/о +26.9 +22.3 76 +35 +35 очень
душно
1016.5 1008.1
18 21.08 Ю 1-1
{2}
н/о н/о +26.1 +22.0 78 +34 +34 очень
душно
1016.8 1008.3 +24.5 +29.2
19 21.08 штиль 0-1
{1}
н/о н/о +25.4 +22.1 82 +33 +33 очень
душно
1017.1 1008.6
20 21.08 ЮЗ 1-1
{1}
н/о н/о +24.7 +22.0 85 +32 +32 очень
душно
1017.5 1009.0
21 21.08 ЮЗ 1 н/о н/о +24.3 +22.0 87 +31 +31 очень
душно
1017.7 1009.2
22 21.08 ЮЗ 1-1
{1}
н/о н/о +24.0 +21.9 88 +31 +31 очень
душно
1017.9 1009.4
23 21.08 ЮЗ 1-1
{2}
н/о н/о +24.3 +22.2 88 +32 +32 очень
душно
1017.7 1009.2
00 22.08 В 1-1
{1}
н/о н/о +24.2 +22.3 89 +31 +31 очень
душно
1017.3 1008.8
01 22.08 штиль 0-1
{1}
н/о н/о +23.5 +21.4 88 +30 +30 очень
душно
1017.2 1008.7
02 22.08 ЮЗ 2-2
{2}
н/о н/о +23.2 +20.5 85 +31 +31 очень
душно
1017.1 1008.6
03 22.08 Ю 1-1
{2}
12 км 5/5 1200 м
[Cu hum]
+23.9 +21.0 84 +30 +30 очень
душно
1017.0 1008.5

 

Местоположение метеостанции Алистро (Франция): широта 42.27 долгота 9.53 высота над уровнем моря 77 м.

В архиве по умолчанию представлена погода в Алистро за последнюю неделю. Архивные данные за месяц целиком и за предыдущие месяцы, начиная с января 2011 года, Вы можете получить, выбрав интересующий диапазон дат из раскрывающегося списка и нажав кнопку "Ввод!".


*Определитесь, кто Вы:
робот инопланетянин человек

Внимание! Время в таблицах - всемирное. Для получения местного времени необходимо прибавить поправку, которая равна 1 ч.

Смотрите также архив погоды в соседних городах и на ближайших метеорологических станциях:

Погода в Бастии (Франция) (31 км)
Погода в Соленцаре (Франция) (40 км)
Погода на Мысе Сагро (Франция) (59 км)
Погода в Л’Иль-Русе (Франция) (64 км)
Погода в Кальви (Франция) (67 км)
Погода в Аяччо (Франция) (72 км)
Погода на Мысе Корсика (Франция) (83 км)
Погода в Ла Парате (Франция) (85 км)
Погода на Mонте Каламита (Италия) (88 км)
Погода в Фигари (Франция) (93 км)

Пояснения к столбцам:

Ветер - указаны скорость ветра в м/с - средняя за 10 мин, порывы в срок и между сроками (в фигурных скобках) и направление, откуда дует ветер: С - северный, СВ - северо-восточный, В - восточный, ЮВ - юго-восточный, Ю - южный, ЮЗ - юго-западный, З - западный, СЗ - северо-западный.
Видимость - горизонтальная дальность видимости в метрах или километрах. При видимости от 1 до 10 км при отсутствии осадков обычно наблюдается дымка, при ухудшении видимости до 1 км и менее - туман. В сухую погоду видимость может ухудшаться дымом, пылью или мглою.
Явления - указаны атмосферные явления, наблюдавшиеся в срок или в последний час перед сроком; фигурными скобками обозначены явления, наблюдавшиеся между сроками (за 1-3 часа до срока); квадратными скобками обозначены град или гололедные отложения с указанием их диаметра в мм.
Облачность - указаны через наклонную черту общая и нижняя облачность в баллах и высота нижней границы облаков в метрах; квадратными скобками обозначены формы облаков: Ci - перистые, Cs - перисто-слоистые, Cc - перисто-кучевые, Ac - высококучевые, As - высокослоистые, Sc - слоисто-кучевые, Ns - слоисто-дождевые, Cu - кучевые, Cb - кучево-дождевые. Подробнее классификацию облаков см. в Атласе облаков (PDF).
T - Температура воздуха - температура, измеренная на высоте 2 м над землей.
Td - Температура точки росы - температура, при понижении до которой содержащийся в воздухе водяной пар достигнет насыщения.
f - Относительная влажность воздуха - влажноcть воздуха, измеренная на высоте 2 м над землей.
Te - Эффективная температура - температура, которую ощущает одетый по сезону человек в тени. Характеристика душности погоды. При расчете учитывается влияние влажности воздуха и скорости ветра на теплоощущения человека.
Tes - Эффективная температура на солнце - температура, которую ощущает человек, с поправкой на солнечный нагрев. Характеристика знойности погоды. Зависит от высоты солнца над горизонтом, облачности и скорости ветра. Ночью, в пасмурную погоду, а также при ветре 12 м/с и более поправка равна нулю.
P - Атмосферное давление - приведенное к уровню моря атмосферное давление.
Po - Атмосферное давление - измеренное на уровне метеостанции атмосферное давление.
Tmin - Минимальная температура - минимум температуры воздуха на высоте 2 м над землей.
Tmax - Максимальная температура - максимум температуры воздуха на высоте 2 м над землей.
R - Количество осадков - Количество выпавших осадков за период времени, мм. При наведении курсора мыши на число - период времени, за который выпало указанное количество осадков.
R24 - Количество осадков - Количество выпавших осадков за 24 часа, мм.
S - Снежный покров - Высота снежного покрова, см. При наведении курсора мыши на число - состояние снежного покрова и степень покрытия местности в баллах.